EW7762 Weather Reports


time (UTC)temp
C
wind
direction
speed
KPH
gust
KPH
rain 1hr
cm
rain 24hr
cm
rain mn
cm
humidity
%
barometer
mb
20260505004534 11 341 8.0 11.3 0.00 0.00 0.00 74 1009.1
20260505004035 12 328 9.7 11.3 0.00 0.00 0.00 71 1009.0
20260505003534 12 254 3.2 4.8 0.00 0.00 0.00 64 1009.3
20260505002534 12 254 3.2 12.9 0.00 0.00 0.00 64 1009.0
20260505002034 12 254 3.2 12.9 0.00 0.00 0.00 64 1009.0
20260505001534 14 265 9.7 16.1 0.00 0.00 0.00 56 1009.0
20260505001034 14 265 9.7 24.1 0.00 0.00 0.00 56 1009.0
20260505000534 15 176 4.8 24.1 0.00 0.00 0.00 52 1008.3
20260505000034 15 150 6.4 20.9 0.00 0.00 0.00 49 1008.3
20260504235534 16 171 9.7 20.9 0.00 0.00 0.00 44 1008.3
20260504235034 17 276 4.8 6.4 0.00 0.00 0.00 39 1008.3
20260504234538 17 274 6.4 6.4 0.00 0.00 0.00 38 1008.2
20260504234027 17 337 1.6 4.8 0.00 0.00 0.00 38 1007.9
20260504233521 17 291 3.2 4.8 0.00 0.00 0.00 37 1007.9
20260504233021 17 291 3.2 8.0 0.00 0.00 0.00 37 1007.7
20260504232520 17 301 4.8 12.9 0.00 0.00 0.00 37 1007.5
20260504232021 17 0 6.4 12.9 0.00 0.00 0.00 37 1007.7
20260504231521 17 295 6.4 11.3 0.00 0.00 0.00 38 1007.3
20260504231021 17 70 6.4 20.9 0.00 0.00 0.00 36 1007.5
20260504230521 17 330 9.7 20.9 0.00 0.00 0.00 36 1007.1
20260504230021 17 335 8.0 11.3 0.00 0.00 0.00 38 1007.5
20260504225521 18 345 9.7 9.7 0.00 0.00 0.00 37 1007.2
20260504225021 18 317 4.8 8.0 0.00 0.00 0.00 39 1007.1
20260504224509 18 295 8.0 8.0 0.00 0.00 0.00 37 1007.0
20260504223957 18 295 8.0 12.9 0.00 0.00 0.00 37 1007.2
20260504222957 19 335 9.7 14.5 0.00 0.00 0.00 35 1007.2
20260504222445 18 314 3.2 14.5 0.00 0.00 0.00 37 1007.0
20260504221944 18 16 6.4 8.0 0.00 0.00 0.00 39 1007.1
20260504221436 17 312 3.2 4.8 0.00 0.00 0.00 39 1007.2
20260504220934 17 312 3.2 4.8 0.00 0.00 0.00 39 1007.3
20260504215434 17 291 4.8 8.0 0.00 0.00 0.00 41 1007.9
20260504214934 17 337 6.4 6.4 0.00 0.00 0.00 42 1007.8
20260504214435 17 313 0.0 3.2 0.00 0.00 0.00 39 1008.2
20260504213933 17 313 0.0 3.2 0.00 0.00 0.00 39 1007.8
20260504213436 17 163 1.6 6.4 0.00 0.00 0.00 40 1007.5
20260504212441 17 349 4.8 14.5 0.00 0.00 0.00 39 1007.5
20260504211934 17 335 12.9 33.8 0.00 0.00 0.00 41 1007.8
20260504211435 17 322 12.9 33.8 0.00 0.00 0.00 40 1007.7
20260504210435 17 334 16.1 30.6 0.00 0.00 0.00 38 1007.6
20260504205934 17 338 11.3 29.0 0.00 0.00 0.00 37 1007.6
20260504205435 17 320 20.9 29.0 0.00 0.00 0.00 38 1007.7
20260504204934 17 327 20.9 30.6 0.00 0.00 0.00 38 1007.7
20260504204435 17 349 17.7 32.2 0.00 0.00 0.00 39 1007.3
20260504203934 17 346 12.9 33.8 0.00 0.00 0.00 38 1007.2
20260504203435 17 335 22.5 33.8 0.00 0.00 0.00 38 1007.8
20260504202934 17 336 17.7 30.6 0.00 0.00 0.00 40 1007.6
20260504200435 17 323 19.3 33.8 0.00 0.00 0.00 38 1008.4
20260504195933 16 5 16.1 40.2 0.00 0.00 0.00 42 1008.6
20260504195436 16 336 16.1 40.2 0.00 0.00 0.00 48 1008.3
20260504194934 16 330 11.3 30.6 0.00 0.00 0.00 46 1008.3
20260504194430 16 358 9.7 30.6 0.00 0.00 0.00 45 1007.7
20260504193423 16 332 20.9 53.1 0.00 0.00 0.00 43 1007.7
20260504192927 15 350 24.1 53.1 0.00 0.00 0.00 44 1007.9
20260504192423 17 338 32.2 41.8 0.00 0.00 0.00 43 1007.1
20260504191909 19 336 24.1 40.2 0.00 0.00 0.00 29 1007.1
20260504191414 19 340 16.1 37.0 0.00 0.00 0.00 29 1007.0
20260504190409 20 333 29.0 35.4 0.00 0.00 0.00 29 1006.8
20260504185409 20 328 24.1 33.8 0.00 0.00 0.00 27 1006.9
20260504184910 21 350 8.0 17.7 0.00 0.00 0.00 26 1006.5
20260504184409 21 29 11.3 19.3 0.00 0.00 0.00 24 1006.6
20260504183908 21 0 9.7 20.9 0.00 0.00 0.00 26 1006.3
20260504183408 21 345 16.1 29.0 0.00 0.00 0.00 26 1006.6
20260504182909 21 344 8.0 29.0 0.00 0.00 0.00 27 1006.4
20260504182409 21 329 14.5 37.0 0.00 0.00 0.00 27 1006.6
20260504181909 21 330 12.9 38.6 0.00 0.00 0.00 27 1006.8
20260504181408 22 323 25.7 38.6 0.00 0.00 0.00 26 1006.3
20260504180409 22 338 16.1 35.4 0.00 0.00 0.00 24 1006.4
20260504174909 23 329 24.1 35.4 0.00 0.00 0.00 25 1006.4
20260504173908 23 325 4.8 16.1 0.00 0.00 0.00 28 1006.5
20260504173409 22 313 4.8 17.7 0.00 0.00 0.00 27 1006.8
20260504172908 23 254 14.5 17.7 0.00 0.00 0.00 23 1006.5
20260504172408 23 271 8.0 14.5 0.00 0.00 0.00 25 1006.6
20260504171857 22 273 4.8 14.5 0.00 0.00 0.00 25 1007.0
20260504171357 22 272 6.4 11.3 0.00 0.00 0.00 24 1007.0
20260504170857 22 225 1.6 11.3 0.00 0.00 0.00 24 1007.0
20260504160357 19 262 8.0 14.5 0.00 0.00 0.00 31 1007.2
20260504150845 15 282 3.2 9.7 0.00 0.00 0.00 37 1007.8
20260504150344 15 294 3.2 8.0 0.00 0.00 0.00 37 1007.6
20260504140845 10 321 4.8 12.9 0.00 0.00 0.00 51 1008.2
20260504140345 10 332 6.4 12.9 0.00 0.00 0.00 50 1007.7
20260504130355 7 349 0.0 8.0 0.00 0.00 0.00 58 1007.8
20260504110344 5 329 3.2 4.8 0.00 0.00 0.00 59 1008.3
20260504100344 6 327 8.0 11.3 0.00 0.00 0.00 54 1008.6
20260504081844 7 347 6.4 9.7 0.00 0.00 0.00 53 1009.3
20260504081345 7 330 9.7 9.7 0.00 0.00 0.00 52 1009.2
20260504080845 7 340 6.4 8.0 0.00 0.00 0.00 53 1009.4
20260504080344 7 13 4.8 8.0 0.00 0.00 0.00 53 1009.5
20260504070334 7 342 4.8 9.7 0.00 0.00 0.00 52 1010.2
20260504045834 12 336 14.5 17.7 0.00 0.00 0.00 42 1010.0
20260504044834 12 311 6.4 12.9 0.00 0.00 0.00 41 1010.0
20260504044333 13 344 6.4 12.9 0.00 0.00 0.00 40 1010.0
20260504043833 13 11 6.4 9.7 0.00 0.00 0.00 39 1009.8
20260504043334 13 358 3.2 11.3 0.00 0.00 0.00 39 1009.8
20260504042834 13 332 0.0 14.5 0.00 0.00 0.00 38 1010.0
20260504042333 14 343 6.4 17.7 0.00 0.00 0.00 38 1010.1
20260504041834 15 25 14.5 24.1 0.00 0.00 0.00 37 1009.9
20260504041333 15 10 11.3 27.4 0.00 0.00 0.00 36 1010.2
20260504040334 15 311 8.0 29.0 0.00 0.00 0.00 35 1010.0
20260504035834 15 35 24.1 29.0 0.00 0.00 0.00 35 1009.9
20260504035333 15 19 9.7 25.7 0.00 0.00 0.00 34 1010.2
20260504034838 16 312 8.0 20.9 0.00 0.00 0.00 34 1010.1
20260504034334 16 30 9.7 20.9 0.00 0.00 0.00 33 1010.1
20260504033839 16 9 8.0 24.1 0.00 0.00 0.00 33 1010.2
20260504033334 16 37 9.7 24.1 0.00 0.00 0.00 32 1010.2
20260504032834 16 55 6.4 27.4 0.00 0.00 0.00 30 1009.9
20260504032334 17 20 9.7 27.4 0.00 0.00 0.00 29 1010.0
20260504031833 17 31 8.0 19.3 0.00 0.00 0.00 27 1010.0
20260504031334 17 13 8.0 17.7 0.00 0.00 0.00 27 1009.7
20260504030839 17 350 6.4 17.7 0.00 0.00 0.00 30 1009.9
20260504030335 16 18 9.7 12.9 0.00 0.00 0.00 32 1009.8
20260504025834 17 343 6.4 6.4 0.00 0.00 0.00 31 1009.9
20260504025334 17 350 1.6 3.2 0.00 0.00 0.00 30 1009.3
20260504024833 17 325 3.2 4.8 0.00 0.00 0.00 31 1009.3
20260504024333 17 342 3.2 4.8 0.00 0.00 0.00 31 1009.3
20260504023834 17 323 0.0 3.2 0.00 0.00 0.00 29 1009.3
20260504023334 17 235 0.0 4.8 0.00 0.00 0.00 29 1009.1
20260504022833 18 148 0.0 4.8 0.00 0.00 0.00 29 1009.2
20260504021834 18 109 0.0 6.4 0.00 0.00 0.00 28 1009.3
20260504021335 18 35 3.2 6.4 0.00 0.00 0.00 28 1009.1
20260504020834 18 122 1.6 4.8 0.00 0.00 0.00 28 1009.0
20260504020334 18 162 3.2 4.8 0.00 0.00 0.00 28 1009.1
20260504015334 18 156 4.8 8.0 0.00 0.00 0.00 29 1009.1
20260504014834 19 178 6.4 6.4 0.00 0.00 0.00 27 1009.1
20260504014334 19 313 1.6 6.4 0.00 0.00 0.00 27 1009.3
20260504013834 19 210 0.0 6.4 0.00 0.00 0.00 28 1009.2
20260504012833 19 336 0.0 3.2 0.00 0.00 0.00 27 1009.1
20260504012333 20 223 0.0 3.2 0.00 0.00 0.00 27 1009.2
20260504011834 20 284 0.0 3.2 0.00 0.00 0.00 26 1009.0
20260504010823 20 104 0.0 6.4 0.00 0.00 0.00 25 1009.1
20260504005822 20 153 4.8 9.7 0.00 0.00 0.00 25 1009.1
20260504005321 20 130 3.2 8.0 0.00 0.00 0.00 25 1009.4